Theta_e
312 313 313 313 313 314 315 315 316 317 317 318 319 320 322 322 320 312 306 311 315 319 317 305 304 302 301 297 300 297 290 287 288 287 289 295 296 299 299 301 302 305 316 318 325
310 310 311 312 312 312 313 313 314 314 315 317 319 320 321 321 313 306 317 319 318 318 304 302 299 299 296 297 298 294 288 291 292 291 292 295 294 296 297 297 300 310 318 323 325
309 310 310 310 311 312 313 314 315 316 317 317 318 319 320 319 305 301 316 317 318 314 306 303 301 299 295 296 297 295 290 292 294 296 295 295 294 295 295 295 300 310 316 323 322
308 308 308 309 310 312 313 313 314 316 317 318 319 319 320 311 293 301 313 314 314 306 303 301 299 295 293 293 297 290 296 296 296 298 297 295 295 294 294 296 299 307 320 323 321
307 307 307 308 309 311 311 313 313 314 316 318 319 319 309 300 299 301 311 308 304 303 299 298 296 295 291 292 292 291 294 295 296 296 294 295 294 292 294 297 298 308 319 323 323
306 306 306 307 308 310 311 311 312 315 318 318 317 318 303 294 302 300 300 301 300 300 297 298 296 298 294 293 291 292 294 294 294 294 294 293 292 292 296 296 297 297 312 316 323
306 306 306 307 309 310 311 312 314 318 318 315 315 310 299 298 299 299 300 299 300 299 297 299 299 296 294 292 294 294 290 292 292 293 293 293 290 290 297 296 295 295 297 307 318
305 306 307 308 309 311 311 311 314 317 314 313 312 301 295 304 300 301 299 298 300 301 300 300 299 296 293 294 292 289 287 284 291 292 294 293 289 293 297 294 295 294 295 296 305
305 306 307 308 311 310 310 311 311 313 311 312 300 296 293 307 299 301 297 295 297 299 298 300 298 292 291 286 283 284 281 284 288 293 290 289 286 293 295 293 293 293 292 294 296
305 305 307 309 311 309 308 309 309 305 303 301 300 290 297 294 299 300 298 297 295 295 294 293 290 285 286 284 280 281 282 283 284 289 289 286 285 291 292 290 290 290 291 291 294
305 305 306 308 308 306 301 295 291 291 294 289 291 292 295 299 301 299 297 294 294 292 285 289 283 280 283 286 286 285 284 282 285 289 287 286 286 288 293 290 289 289 289 290 291
304 305 306 306 306 304 298 291 293 295 289 293 293 294 296 297 293 295 297 290 288 284 286 284 281 287 288 287 285 284 282 282 285 289 287 286 286 290 290 291 292 292 290 289 291
303 304 306 305 304 296 290 290 297 297 286 289 294 291 291 293 290 290 293 290 286 286 285 282 285 290 288 286 284 284 281 281 282 286 288 283 284 287 290 291 292 292 294 293 292
303 303 305 304 292 291 288 291 295 295 277 282 288 290 288 288 283 293 293 288 288 285 285 284 288 286 286 285 287 282 287 285 284 281 277 284 277 285 287 290 291 294 294 294 295
302 303 304 301 290 285 289 292 294 288 261 281 287 292 287 285 286 286 292 289 284 285 285 282 285 284 283 285 289 284 289 287 285 280 277 281 276 282 287 288 290 292 293 295 297
301 302 303 294 287 288 292 292 288 270 261 278 284 280 281 282 284 284 285 288 287 284 285 284 289 287 285 288 289 289 288 287 287 282 275 281 279 283 285 288 290 292 294 295 295
302 301 298 293 285 292 291 285 271 264 276 275 277 279 279 277 278 279 278 279 276 274 274 279 282 286 288 284 289 288 284 277 275 275 275 280 280 283 288 290 290 291 293 293 293
300 298 295 293 291 291 286 276 263 265 272 279 278 279 276 276 276 277 275 276 277 275 269 270 270 278 281 283 282 282 282 276 272 272 274 278 277 281 286 288 288 288 289 290 291
297 287 288 289 291 289 281 267 264 274 277 277 277 273 273 277 275 273 272 276 276 276 266 269 273 279 280 285 286 280 278 286 279 277 276 279 280 285 287 287 288 288 287 286 288
284 283 284 290 289 284 276 274 273 279 278 279 272 275 270 272 270 271 271 277 275 277 278 273 267 277 279 282 284 283 286 277 278 271 270 274 275 276 283 284 286 287 287 288 287
282 279 285 288 285 278 266 263 277 279 278 276 273 273 273 271 271 269 269 276 276 275 277 275 272 272 277 276 274 276 275 279 280 278 273 272 276 284 284 285 284 287 288 289 287
280 271 285 284 273 259 262 269 279 276 277 277 276 274 273 273 271 271 271 274 278 276 270 275 268 266 270 277 277 279 274 275 267 268 272 275 274 289 287 285 287 286 287 290 290
276 273 283 281 265 260 269 276 277 275 276 275 274 275 275 272 262 270 270 276 277 275 270 272 265 262 263 268 275 272 273 274 274 273 269 269 274 288 284 284 286 287 288 290 291
275 269 273 275 274 273 265 268 268 278 276 277 276 276 274 271 274 262 270 275 278 275 280 278 270 266 262 265 269 267 271 272 272 266 268 269 272 280 279 279 282 283 289 290 291
273 269 273 263 267 273 274 270 267 268 276 276 274 274 273 263 269 264 269 273 276 278 276 270 260 267 268 270 270 270 271 271 270 271 267 270 272 277 278 279 282 284 286 286 286
271 270 273 269 275 273 272 270 272 272 273 271 272 274 274 265 271 268 272 272 272 274 273 274 265 265 265 269 270 268 270 271 272 272 273 275 275 279 278 281 280 280 281 282 283
279 281 277 273 272 268 269 273 274 275 276 277 275 274 273 275 276 277 276 276 275 273 271 270 263 260 259 266 261 257 265 270 271 274 274 271 275 277 276 276 278 279 280 281 282
Wind_Speed
21 22 21 21 21 22 21 20 18 18 18 18 18 17 16 16 16 2 5 4 3 4 1 3 2 2 2 2 3 4 1 4 5 5 7 3 3 2 1 5 1 4 7 3 16
23 23 23 22 22 22 22 22 21 19 18 17 17 16 16 15 3 6 3 2 5 4 2 2 0 3 1 3 2 4 4 7 5 3 4 6 3 3 2 2 2 1 2 8 18
24 24 25 23 23 23 22 22 22 20 20 18 17 16 15 10 2 3 6 5 4 5 3 3 1 1 3 3 4 5 7 4 5 4 3 4 4 5 3 4 7 8 6 12 15
24 25 25 26 25 23 23 22 22 22 20 18 16 15 13 1 2 5 7 7 7 4 3 2 2 4 4 6 4 3 8 6 4 3 3 4 4 5 5 5 5 9 11 15 15
26 25 26 26 27 25 24 23 22 21 20 17 13 10 3 3 5 6 8 8 6 4 3 2 3 2 4 3 2 6 5 4 5 6 5 4 7 5 8 9 5 3 6 15 16
26 26 26 25 26 27 27 26 24 20 15 10 8 2 2 4 6 8 9 7 5 4 5 1 3 3 5 4 4 2 4 6 6 5 4 4 4 5 10 5 7 4 10 8 13
27 28 28 27 25 25 26 27 20 15 8 7 5 1 6 3 5 8 8 5 5 3 4 3 5 2 4 5 5 3 6 6 7 5 7 5 8 12 11 4 10 11 8 10 12
27 27 27 27 27 27 27 24 16 9 13 4 2 3 4 4 6 7 7 6 7 4 2 4 3 4 3 5 6 4 1 4 4 6 6 9 19 8 8 8 13 11 11 9 14
27 26 26 26 24 26 27 16 12 11 8 2 3 3 4 9 10 9 4 5 7 4 3 2 2 2 5 2 5 4 6 7 7 7 3 6 6 5 3 8 12 10 8 10 9
28 26 27 26 21 25 23 7 12 7 8 3 4 6 9 8 7 9 6 4 3 7 6 7 5 4 4 2 7 6 6 6 6 1 3 8 10 15 6 3 9 8 9 10 11
28 28 26 25 17 25 14 7 11 12 11 4 3 4 6 10 4 7 6 7 5 6 5 4 5 4 8 7 9 6 6 9 4 5 4 8 14 14 16 9 9 9 10 9 11
30 28 27 26 9 18 11 9 3 3 9 4 3 5 6 4 6 13 9 7 6 6 6 6 4 4 8 7 8 9 13 15 9 7 5 9 20 14 12 14 14 14 10 11 7
30 29 28 27 3 7 8 7 6 5 3 7 3 4 7 6 5 12 9 7 5 7 6 3 7 7 6 7 11 12 9 8 12 7 8 3 24 15 11 12 11 13 14 11 14
29 27 27 26 8 4 3 10 9 3 5 10 9 8 12 8 5 5 7 2 6 6 7 5 3 8 8 4 4 9 5 8 10 2 5 2 16 8 2 14 11 15 15 17 16
29 26 22 13 2 4 7 10 7 3 6 9 6 4 10 9 7 14 10 8 4 5 3 7 9 8 10 8 2 6 8 5 3 5 3 9 3 6 2 10 9 10 14 16 19
29 24 18 4 3 3 9 7 3 10 4 7 6 10 11 9 7 10 11 10 3 5 2 8 6 3 4 8 6 5 6 10 4 4 6 16 10 24 8 9 7 7 12 12 13
29 20 5 3 7 12 7 4 8 8 5 9 6 9 4 8 7 8 8 21 12 9 9 8 7 4 12 13 6 8 5 5 4 4 8 2 10 22 8 14 11 14 16 15 8
29 10 5 2 8 6 3 8 8 5 4 4 6 7 5 12 4 10 8 5 17 8 3 5 9 8 20 6 6 12 3 4 8 4 6 3 7 6 7 15 17 14 16 12 13
16 5 3 8 9 2 7 9 7 1 4 8 7 5 4 5 5 9 8 6 9 11 4 6 6 25 13 10 6 5 5 4 6 9 8 6 7 3 17 22 23 23 22 20 14
2 4 4 15 8 5 9 5 2 3 4 3 3 6 5 8 7 6 4 4 5 8 2 5 13 8 9 14 8 2 10 7 3 4 5 4 4 3 14 19 22 22 22 23 17
5 4 5 15 5 9 6 5 2 1 4 3 1 3 3 4 3 3 4 1 8 5 5 5 6 11 10 6 16 15 6 6 6 6 5 3 2 4 7 13 18 21 17 19 19
3 5 6 8 8 2 3 4 2 3 3 2 2 2 2 4 3 3 1 2 11 5 7 3 4 6 14 18 4 4 8 4 4 9 8 10 9 5 10 12 12 18 17 20 17
3 2 5 5 5 3 5 2 2 2 2 2 1 2 2 1 3 3 2 5 6 8 3 5 4 7 10 8 7 5 11 11 11 3 12 9 3 7 15 18 16 16 12 17 17
4 5 6 7 0 4 2 3 4 3 2 2 2 1 1 2 4 5 3 5 7 8 15 6 3 5 8 15 12 21 20 13 6 5 10 12 21 14 20 22 18 18 14 8 16
4 2 4 3 5 2 2 3 1 3 2 3 2 4 3 2 4 5 5 10 6 9 4 4 6 10 11 13 18 22 21 21 14 17 9 14 18 12 17 18 16 15 19 17 18
3 4 3 2 2 2 1 3 5 4 3 4 5 6 6 7 8 11 11 6 7 3 3 3 8 5 15 16 17 21 19 18 20 22 15 13 13 13 10 10 17 18 18 17 18
1 1 5 4 1 4 4 5 5 3 5 8 7 5 7 13 11 12 10 10 12 13 11 4 3 1 7 5 4 7 9 13 10 4 3 5 7 10 12 15 10 10 15 18 16
Wind_Direction
5 359 356 352 348 344 340 338 336 335 334 332 331 331 328 330 325 260 229 240 225 270 316 274 236 192 145 262 182 131 47 248 253 172 254 314 213 300 14 138 158 177 162 207 131
4 360 355 352 347 343 337 334 333 330 327 325 325 324 326 330 313 260 274 342 317 321 302 226 141 139 248 251 213 154 180 226 224 234 271 303 293 214 162 151 220 229 46 122 138
2 357 353 350 345 341 338 334 330 328 326 321 320 321 326 327 322 354 351 347 321 321 291 296 137 145 222 182 208 191 218 215 262 247 235 283 302 319 164 246 219 194 168 155 153
360 355 351 345 343 341 338 335 330 324 317 314 314 320 318 220 10 348 343 334 323 317 294 275 218 162 232 210 194 229 249 237 269 264 290 272 304 310 211 236 294 212 171 164 169
357 354 350 346 340 338 337 335 329 318 311 307 312 318 10 22 348 330 337 335 326 325 281 286 233 245 202 221 278 216 254 262 272 294 260 312 264 254 270 253 302 147 164 181 183
356 351 348 346 341 336 336 335 330 322 316 313 326 345 80 44 289 336 340 340 5 349 326 295 299 335 282 258 199 295 273 266 277 255 258 236 256 153 255 223 226 228 212 215 197
356 351 348 346 343 336 334 336 337 338 4 357 1 20 74 347 344 321 352 315 324 356 325 354 330 283 333 289 329 293 297 295 233 223 234 177 273 226 233 166 213 218 225 226 222
358 353 350 348 343 335 340 343 342 355 341 15 28 59 80 317 313 355 337 338 344 318 272 304 310 274 225 316 342 313 243 312 285 190 238 147 260 253 246 202 240 222 220 223 230
358 356 353 351 342 338 344 344 347 12 19 27 32 72 10 331 359 324 3 325 306 335 304 311 17 309 342 45 344 342 267 242 302 189 119 202 278 253 245 190 239 243 227 231 234
358 359 357 352 349 349 346 358 322 8 358 339 65 57 354 313 312 317 306 344 352 327 16 30 38 39 14 76 245 241 251 261 254 346 197 246 248 275 259 257 251 261 249 227 234
358 357 358 356 4 4 2 24 13 356 30 37 313 89 280 299 292 331 335 337 10 47 29 349 48 294 266 268 306 324 282 267 315 1 302 258 270 257 273 273 265 260 254 247 236
356 354 354 356 17 25 24 69 35 295 317 307 244 272 258 292 327 347 7 31 23 6 352 14 280 307 299 270 269 287 290 289 265 252 227 273 271 260 261 259 242 248 239 239 245
355 352 349 350 57 36 60 60 318 323 259 308 298 12 327 3 13 336 16 333 16 6 359 267 262 354 18 341 320 292 268 277 260 280 241 305 282 259 242 244 240 241 239 232 228
352 352 350 346 47 335 49 343 328 292 69 344 349 5 350 335 40 9 352 20 353 335 335 276 291 328 316 301 284 291 296 283 295 294 258 171 283 231 252 252 227 245 233 233 234
352 348 349 31 281 46 297 317 300 76 51 314 343 311 332 43 324 343 312 350 320 301 39 285 317 323 315 269 165 238 288 242 320 301 6 233 281 279 128 256 253 251 244 236 234
350 344 345 23 22 271 315 308 57 43 265 339 2 357 3 8 9 316 1 357 352 309 16 266 253 315 254 299 247 319 335 288 178 173 231 243 198 277 252 259 252 248 260 249 244
346 341 12 355 324 322 320 46 37 101 318 327 342 348 4 344 16 353 349 46 34 0 354 323 320 299 24 337 8 33 317 295 241 208 241 263 180 249 305 327 323 317 309 299 273
342 350 339 318 318 320 41 48 72 243 294 349 337 325 58 7 29 344 1 32 36 28 320 342 337 17 344 345 296 296 268 281 312 316 293 26 214 235 12 11 0 349 324 317 322
347 342 6 328 334 348 68 51 184 247 318 330 331 27 0 31 17 4 6 25 44 28 39 319 263 329 330 326 331 330 284 289 279 248 257 208 260 303 12 15 2 2 3 339 334
30 355 319 334 335 52 69 113 112 22 323 345 355 33 354 352 13 18 348 50 13 22 353 290 295 264 305 319 291 304 334 308 239 276 264 286 299 3 14 4 359 358 357 352 338
40 38 273 335 35 46 96 198 110 22 29 16 33 344 35 354 308 297 307 58 32 343 327 274 243 303 321 335 317 322 343 307 304 262 289 271 246 254 48 16 4 347 347 351 348
30 33 311 347 51 22 85 183 342 14 0 28 92 40 59 355 313 304 311 286 353 357 328 278 259 283 305 294 24 346 40 39 28 323 296 279 282 63 41 7 350 338 346 349 351
41 273 325 41 81 345 318 359 358 8 351 19 61 66 47 320 352 261 313 305 330 359 302 305 311 320 328 346 25 0 324 330 317 308 277 328 296 28 4 7 341 334 352 348 340
58 13 338 34 105 106 78 322 327 318 271 249 271 125 68 278 197 252 276 298 316 288 286 303 272 207 269 273 279 294 289 304 269 283 306 275 292 352 358 345 344 350 333 356 338
33 264 177 319 339 81 151 162 213 307 253 200 280 195 208 260 283 253 269 293 265 277 289 113 238 262 258 268 278 273 283 297 284 277 266 292 299 357 353 345 12 16 15 16 9
116 107 350 192 253 127 261 251 197 259 180 266 231 244 261 193 227 273 283 279 260 244 219 189 273 295 288 268 260 280 284 285 269 271 259 288 300 9 326 348 11 6 10 9 360
217 358 106 267 114 99 228 215 218 172 259 241 254 255 245 258 260 252 244 253 252 268 279 236 211 292 266 324 336 327 237 253 282 285 327 303 345 310 331 345 351 4 2 352 345